Weather History for Eveleth, MN

Change the Weather History Date:

Friday, November 16, 2012

  Actual Average Record
Temperature  
Mean Temperature 24 °F -  
Max Temperature 37 °F 33 °F 51 °F (1987)
Min Temperature 10 °F 19 °F -4 °F (2002)
Degree Days  
Heating Degree Days 42    
Moisture  
Dew Point 17 °F    
Average Humidity 75    
Maximum Humidity 93    
Minimum Humidity 52    
Precipitation  
Precipitation 0.00 in - - ()
Sea Level Pressure  
Sea Level Pressure 30.40 in    
Wind  
Wind Speed 2 mph (SSE)    
Max Wind Speed 12 mph    
Max Gust Speed 16 mph    
Visibility 10 miles    
Events      
Averages and records for this station are not official NWS values.
T = Trace of Precipitation, MM = Missing Value Source: NWS Daily Summary

Daily Weather History Graph

Daily Weather History Graph

Search for Another Location

Airport:

Trip Planner

Search our weather history database for the weather conditions in past years. The results will help you decide how hot, cold, wet, or windy it might be!

Date:

Astronomy

Nov. 16, 2012 Rise Set
Actual Time 7:16 AM CST 4:32 PM CST
Civil Twilight 6:43 AM CST 5:06 PM CST
Nautical Twilight 6:05 AM CST 5:43 PM CST
Astronomical Twilight 5:29 AM CST 6:19 PM CST
Moon 10:15 AM CST (11/16) 7:29 PM CST (11/16)
Length of Visible Light 10h 22m
Length of Day
9h 15m
Waxing Crescent, 12% of the Moon is Illuminated
Nov 16
Waxing Crescent
Nov 20
First Quarter
Nov 28
Full
Dec 6
Last Quarter
Dec 13
New

Hourly Weather History & Observations

Time (CST) Temp. Windchill Dew Point Humidity Pressure Visibility Wind Dir Wind Speed Gust Speed Precip Events Conditions
12:09 AM 21.2 °F - 12.2 °F 68% 30.46 in 10.0 mi Calm Calm - N/A   Clear
12:30 AM 17.6 °F - 10.4 °F 73% 30.46 in 10.0 mi Calm Calm - N/A   Clear
12:49 AM 17.6 °F - 12.2 °F 79% 30.45 in 10.0 mi Calm Calm - N/A   Clear
1:09 AM 15.8 °F 10.2 °F 10.4 °F 79% 30.45 in 10.0 mi SSE 3.5 mph - N/A   Clear
1:30 AM 14.0 °F - 10.4 °F 86% 30.44 in 10.0 mi Calm Calm - N/A   Clear
1:49 AM 15.8 °F - 12.2 °F 86% 30.44 in 10.0 mi Calm Calm - N/A   Clear
2:09 AM 15.8 °F - 12.2 °F 86% 30.44 in 10.0 mi Calm Calm - N/A   Clear
2:30 AM 15.8 °F - 12.2 °F 86% 30.44 in 10.0 mi Calm Calm - N/A   Clear
2:48 AM 14.0 °F - 10.4 °F 86% 30.44 in 10.0 mi Calm Calm - N/A   Clear
3:10 AM 12.2 °F - 10.4 °F 92% 30.46 in 10.0 mi Calm Calm - N/A   Clear
3:29 AM 12.2 °F - 10.4 °F 92% 30.45 in 10.0 mi Calm Calm - N/A   Clear
3:50 AM 12.2 °F - 10.4 °F 92% 30.45 in 10.0 mi Calm Calm - N/A   Clear
4:09 AM 12.2 °F - 10.4 °F 92% 30.45 in 10.0 mi Calm Calm - N/A   Clear
4:29 AM 12.2 °F - 10.4 °F 92% 30.45 in 10.0 mi Calm Calm - N/A   Clear
4:50 AM 12.2 °F 6.1 °F 10.4 °F 92% 30.45 in 10.0 mi North 3.5 mph - N/A   Clear
5:09 AM 12.2 °F - 10.4 °F 92% 30.46 in 10.0 mi Calm Calm - N/A   Clear
5:29 AM 10.4 °F - 8.6 °F 92% 30.45 in 10.0 mi Calm Calm - N/A   Clear
5:49 AM 10.4 °F - 8.6 °F 92% 30.45 in 10.0 mi Calm Calm - N/A   Clear
6:10 AM 12.2 °F - 10.4 °F 92% 30.45 in 10.0 mi Calm Calm - N/A   Clear
6:29 AM 12.2 °F - 8.6 °F 85% 30.45 in 10.0 mi Calm Calm - N/A   Clear
6:49 AM 10.4 °F 4.0 °F 8.6 °F 92% 30.45 in 10.0 mi ENE 3.5 mph - N/A   Clear
7:10 AM 10.4 °F - 6.8 °F 85% 30.46 in 10.0 mi Calm Calm - N/A   Clear
7:29 AM 10.4 °F - 6.8 °F 85% 30.46 in 10.0 mi Calm Calm - N/A   Clear
7:49 AM 12.2 °F - 10.4 °F 92% 30.46 in 10.0 mi Calm Calm - N/A   Clear
8:10 AM 14.0 °F - 12.2 °F 93% 30.46 in 10.0 mi Calm Calm - N/A   Clear
8:29 AM 19.4 °F - 15.8 °F 86% 30.46 in 10.0 mi Calm Calm - N/A   Clear
8:49 AM 21.2 °F - 17.6 °F 86% 30.46 in 10.0 mi Calm Calm - N/A   Clear
9:10 AM 24.8 °F 20.5 °F 19.4 °F 80% 30.45 in 10.0 mi SSE 3.5 mph - N/A   Clear
9:29 AM 26.6 °F 20.0 °F 21.2 °F 80% 30.46 in 10.0 mi South 5.8 mph - N/A   Clear
9:49 AM 28.4 °F 24.6 °F 21.2 °F 74% 30.46 in 10.0 mi SSE 3.5 mph - N/A   Clear
10:10 AM 32.0 °F 26.4 °F 23.0 °F 69% 30.46 in 10.0 mi South 5.8 mph - N/A   Clear
10:29 AM 32.0 °F 26.4 °F 23.0 °F 69% 30.46 in 10.0 mi South 5.8 mph - N/A   Clear
10:49 AM 32.0 °F 23.0 °F 23.0 °F 69% 30.46 in 10.0 mi SSW 11.5 mph 16.1 mph N/A   Clear
11:10 AM 33.8 °F 25.8 °F 23.0 °F 65% 30.46 in 10.0 mi South 10.4 mph - N/A   Clear
11:29 AM 33.8 °F 27.0 °F 23.0 °F 65% 30.46 in 10.0 mi South 8.1 mph - N/A   Clear
11:49 AM 35.6 °F 29.2 °F 23.0 °F 60% 30.45 in 10.0 mi SSW 8.1 mph - N/A   Clear
12:10 PM 35.6 °F 29.2 °F 23.0 °F 60% 30.44 in 10.0 mi SSE 8.1 mph - N/A   Clear
12:29 PM 35.6 °F 28.6 °F 21.2 °F 56% 30.43 in 10.0 mi South 9.2 mph - N/A   Clear
12:49 PM 35.6 °F 29.2 °F 21.2 °F 56% 30.41 in 10.0 mi SSE 8.1 mph - N/A   Clear
1:10 PM 35.6 °F 30.7 °F 23.0 °F 60% 30.41 in 10.0 mi South 5.8 mph - N/A   Clear
1:29 PM 35.6 °F 29.2 °F 21.2 °F 56% - 10.0 mi SSE 8.1 mph - N/A   Clear
1:50 PM 37.4 °F 30.3 °F 21.2 °F 52% 30.38 in 10.0 mi SE 10.4 mph - N/A   Clear
2:10 PM 35.6 °F 27.5 °F 21.2 °F 56% 30.36 in 10.0 mi SSE 11.5 mph - N/A   Clear
2:30 PM 35.6 °F 29.2 °F 21.2 °F 56% 30.36 in 10.0 mi SSE 8.1 mph - N/A   Clear
2:50 PM 35.6 °F 29.2 °F 19.4 °F 52% 30.36 in 10.0 mi SSE 8.1 mph - N/A   Clear
3:09 PM 35.6 °F 29.2 °F 21.2 °F 56% 30.35 in 10.0 mi SE 8.1 mph - N/A   Clear
3:30 PM 35.6 °F 29.2 °F 19.4 °F 52% 30.35 in 10.0 mi SSE 8.1 mph - N/A   Clear
3:50 PM 35.6 °F 29.9 °F 19.4 °F 52% 30.35 in 10.0 mi SSE 6.9 mph - N/A   Clear
4:09 PM 33.8 °F 27.7 °F 17.6 °F 52% 30.35 in 10.0 mi SSE 6.9 mph - N/A   Clear
4:30 PM 32.0 °F 27.5 °F 17.6 °F 55% 30.35 in 10.0 mi SE 4.6 mph - N/A   Clear
4:50 PM 32.0 °F 26.4 °F 17.6 °F 55% 30.34 in 10.0 mi SSE 5.8 mph - N/A   Clear
5:09 PM 32.0 °F 26.4 °F 19.4 °F 60% 30.34 in 10.0 mi SSE 5.8 mph - N/A   Clear
5:30 PM 32.0 °F 28.7 °F 21.2 °F 64% 30.34 in 10.0 mi SE 3.5 mph - N/A   Clear
5:50 PM 32.0 °F 28.7 °F 21.2 °F 64% 30.34 in 10.0 mi ESE 3.5 mph - N/A   Clear
6:09 PM 30.2 °F 25.4 °F 19.4 °F 64% 30.33 in 10.0 mi SE 4.6 mph - N/A   Clear
6:30 PM 30.2 °F 25.4 °F 21.2 °F 69% 30.32 in 10.0 mi ESE 4.6 mph - N/A   Clear
6:50 PM 30.2 °F 26.7 °F 21.2 °F 69% 30.32 in 10.0 mi SE 3.5 mph - N/A   Clear
7:09 PM 28.4 °F - 21.2 °F 74% 30.32 in 10.0 mi Calm Calm - N/A   Clear
7:50 PM 28.4 °F 24.6 °F 21.2 °F 74% 30.31 in 10.0 mi East 3.5 mph - N/A   Clear
8:09 PM 26.6 °F - 19.4 °F 74% 30.31 in 10.0 mi Calm Calm - N/A   Clear
8:29 PM 26.6 °F - 21.2 °F 80% 30.31 in 10.0 mi Calm Calm - N/A   Clear
8:50 PM 26.6 °F - 21.2 °F 80% 30.31 in 10.0 mi Calm Calm - N/A   Scattered Clouds
9:09 PM 26.6 °F - 21.2 °F 80% 30.30 in 10.0 mi Calm Calm - N/A   Scattered Clouds
9:49 PM 26.6 °F - 21.2 °F 80% 30.30 in 10.0 mi Calm Calm - N/A   Clear
10:09 PM 26.6 °F - 21.2 °F 80% 30.30 in 10.0 mi Calm Calm - N/A   Clear
10:29 PM 23.0 °F - 21.2 °F 93% 30.30 in 10.0 mi Calm Calm - N/A   Scattered Clouds
10:50 PM 26.6 °F - 21.2 °F 80% 30.29 in 10.0 mi Calm Calm - N/A   Mostly Cloudy
11:09 PM 26.6 °F - 23.0 °F 86% 30.29 in 10.0 mi Calm Calm - N/A   Mostly Cloudy
11:29 PM 26.6 °F - 23.0 °F 86% 30.29 in 10.0 mi Calm Calm - N/A   Overcast
11:50 PM 28.4 °F - 23.0 °F 80% 30.29 in 10.0 mi Calm Calm - N/A   Mostly Cloudy